This is the latest recevied weather packets stored in our database for station/object WB5CFT. If no packets are shown the sender has not sent any weather packets the latest 1 day(s).
| Time | Temp. | Humidity | Pressure | Rain* | Wind** | Luminosity | Snow |
|---|---|---|---|---|---|---|---|
| 1777989494 | 22.78° C | 31% | 1011.4 hPa | 0 mm | 0.45 m/s, 196° | 39 W/m² | - |
| 1777989190 | 22.78° C | 31% | 1011.4 hPa | 0 mm | 0 m/s | 28 W/m² | - |
| 1777988886 | 22.78° C | 31% | 1011.4 hPa | 0 mm | 0.45 m/s, 206° | 33 W/m² | - |
| 1777988583 | 22.22° C | 32% | 1011.5 hPa | 0 mm | 0 m/s | 30 W/m² | - |
| 1777988280 | 22.78° C | 33% | 1011.1 hPa | 0 mm | 0.45 m/s, 262° | 32 W/m² | - |
| 1777987977 | 21.67° C | 32% | 1011.1 hPa | 0 mm | 0 m/s | 27 W/m² | - |
| 1777987672 | 22.78° C | 34% | 1011.3 hPa | 0 mm | 0 m/s | 21 W/m² | - |
| 1777987369 | 22.22° C | 31% | 1011.1 hPa | 0 mm | 0 m/s | 18 W/m² | - |
| 1777987067 | 22.22° C | 30% | 1011 hPa | 0 mm | 0 m/s | 17 W/m² | - |
| 1777986764 | 22.22° C | 31% | 1010.7 hPa | 0 mm | 0 m/s | 15 W/m² | - |
| 1777986462 | 22.78° C | 32% | 1010.6 hPa | 0 mm | 0 m/s | 15 W/m² | - |
| 1777986160 | 22.22° C | 31% | 1010.6 hPa | 0 mm | 0 m/s | 15 W/m² | - |
| 1777985857 | 22.78° C | 30% | 1010.4 hPa | 0 mm | 0 m/s | 13 W/m² | - |
| 1777985554 | 22.78° C | 29% | 1010.4 hPa | 0 mm | 0 m/s | 10 W/m² | - |
| 1777985250 | 23.33° C | 29% | 1010.2 hPa | 0 mm | 0 m/s | 8 W/m² | - |
| 1777984947 | 21.67° C | 30% | 1010.1 hPa | 0 mm | 0.89 m/s, 189° | 6 W/m² | - |
| 1777984643 | 22.22° C | 32% | 1010.1 hPa | 0 mm | 0 m/s | 5 W/m² | - |
| 1777984340 | 22.78° C | 30% | 1009.6 hPa | 0 mm | 0 m/s | 3 W/m² | - |
| 1777984036 | 22.22° C | 31% | 1010.1 hPa | 0 mm | 0 m/s | 2 W/m² | - |
| 1777983734 | 22.22° C | 29% | 1009.9 hPa | 0 mm | 0 m/s | 1 W/m² | - |
| 1777983430 | 21.67° C | 33% | 1009.8 hPa | 0 mm | 0 m/s | 1 W/m² | - |
| 1777983127 | 22.78° C | 30% | 1009.9 hPa | 0 mm | 0 m/s | 0 W/m² | - |
| 1777982823 | 20.56° C | 33% | 1009.9 hPa | 0 mm | 0 m/s | 0 W/m² | - |
| 1777982519 | 21.11° C | 33% | 1009.6 hPa | 0 mm | 0 m/s | 0 W/m² | - |
| 1777982213 | 20.56° C | 31% | 1009.5 hPa | 0 mm | 0.89 m/s, 156° | 0 W/m² | - |
* Rain latest hour (hover to see other rain measurements)
** Current wind speed in m/s (hover to see current wind gust speed)